{"data":{"norad_id":64082,"epoch":"2026-05-24T23:46:07.510944Z","epoch_age_seconds":75175,"freshness":"FRESH","line1":"1 64082U 25107U   26144.99036471  .00024953  00000+0  91288-3 0  9994","line2":"2 64082  42.9987 130.2913 0000948 255.1586 104.9161 15.27592836 57791","mean_motion":15.27592836,"eccentricity":9.48e-5,"inclination_deg":42.9987,"raan_deg":130.2913,"arg_perigee_deg":255.1586,"mean_anomaly_deg":104.9161,"bstar":0.00091288,"rev_number":5779,"period_min":94.265956612538,"perigee_km":482.36022390883,"apogee_km":483.6610975053,"semimajor_km":6861.1476607071,"source":"CELESTRAK","updated_at":"2026-05-25T13:38:20.261882Z"}}